Lufkin, TX

6:33 PM CDT on April 27, 2017 (GMT -0500)
Angelina County

Weather History for KLFK - October, 2013

Change the Weather History Date:

Saturday, October 26, 2013

  Actual Average Record
Temperature  
Mean Temperature 63 °F 65 °F  
Max Temperature 80 °F 77 °F 90 °F (1927)
Min Temperature 46 °F 53 °F 33 °F (1955)
Degree Days  
Heating Degree Days 2 3  
Month to date heating degree days 26 44  
Since 1 July heating degree days 26 48  
Cooling Degree Days 0 3  
Month to date cooling degree days 157 133  
Year to date cooling degree days 2790 2530  
Growing Degree Days 12 (Base 50)    
Moisture  
Dew Point 52 °F    
Average Humidity 69    
Maximum Humidity 93    
Minimum Humidity 45    
Precipitation  
Precipitation T in 0.18 in 2.92 in (2006)
Month to date precipitation 1.93 3.98  
Year to date precipitation 32.18 38.65  
Snow  
Snow 0.00 in - - ()
Month to date snowfall 0.0  
Since 1 July snowfall 0.0  
Since 1 September snowfall 0.0  
Snow Depth 0.00 in    
Sea Level Pressure  
Sea Level Pressure 30.19 in    
Wind  
Wind Speed 7 mph (SSE)    
Max Wind Speed 15 mph    
Max Gust Speed 21 mph    
Visibility 10 miles    
Events Rain    
T = Trace of Precipitation, MM = Missing Value Source: NWS Daily Summary

Daily Weather History Graph

Daily Weather History Graph

Search for Another Location

Airport or City:

Trip Planner

Search our weather history database for the weather conditions in past years. The results will help you decide how hot, cold, wet, or windy it might be!

Date:

Astronomy

Oct. 26, 2013 Rise Set
Actual Time 7:30 AM CDT 6:35 PM CDT
Civil Twilight 7:05 AM CDT 7:00 PM CDT
Nautical Twilight 6:36 AM CDT 7:28 PM CDT
Astronomical Twilight 6:08 AM CDT 7:56 PM CDT
Moon 12:01 AM CDT (10/26) 1:43 PM CDT (10/26)
Length of Visible Light 11h 54m
Length of Day
11h 05m
Waning Gibbous, 53% of the Moon is Illuminated
Oct 26
Waning Gibbous
Oct 26
Last Quarter
Nov 3
New
Nov 9
First Quarter
Nov 17
Full

Hourly Weather History & Observations

Time (CDT) Temp. Dew Point Humidity Pressure Visibility Wind Dir Wind Speed Gust Speed Precip Events Conditions
12:53 AM 50.0 °F 46.9 °F 89% 30.27 in 10.0 mi ESE 4.6 mph - N/A   Clear
1:53 AM 50.0 °F 46.0 °F 86% 30.26 in 10.0 mi ESE 4.6 mph - N/A   Clear
2:53 AM 50.0 °F 44.1 °F 80% 30.26 in 10.0 mi ESE 3.5 mph - N/A   Clear
3:53 AM 48.9 °F 43.0 °F 80% 30.25 in 10.0 mi ESE 3.5 mph - N/A   Clear
4:53 AM 46.9 °F 44.1 °F 90% 30.24 in 10.0 mi East 4.6 mph - N/A   Clear
5:53 AM 48.0 °F 42.1 °F 80% 30.24 in 10.0 mi ESE 5.8 mph - N/A   Clear
6:53 AM 48.0 °F 42.1 °F 80% 30.25 in 10.0 mi SE 3.5 mph - N/A   Clear
7:53 AM 48.0 °F 43.0 °F 83% 30.25 in 10.0 mi ESE 4.6 mph - N/A   Clear
8:53 AM 52.0 °F 45.0 °F 77% 30.26 in 10.0 mi SE 6.9 mph - N/A   Clear
9:53 AM 59.0 °F 46.9 °F 64% 30.26 in 10.0 mi SSE 6.9 mph - N/A   Scattered Clouds
10:53 AM 66.0 °F 53.1 °F 63% 30.26 in 10.0 mi SSW 5.8 mph - N/A   Partly Cloudy
11:53 AM 71.1 °F 57.0 °F 61% 30.24 in 10.0 mi South 6.9 mph - N/A   Partly Cloudy
12:53 PM 75.9 °F 59.0 °F 56% 30.22 in 10.0 mi South 9.2 mph - N/A   Clear
1:53 PM 79.0 °F 59.0 °F 50% 30.18 in 10.0 mi SSE 9.2 mph - N/A   Overcast
2:53 PM 79.0 °F 57.9 °F 48% 30.15 in 10.0 mi South 6.9 mph - N/A   Partly Cloudy
3:53 PM 79.0 °F 55.0 °F 44% 30.14 in 10.0 mi SSE 11.5 mph - N/A   Clear
4:53 PM 78.1 °F 55.9 °F 46% 30.12 in 10.0 mi South 11.5 mph - N/A   Clear
5:53 PM 75.0 °F 57.9 °F 55% 30.11 in 10.0 mi SSE 8.1 mph - N/A   Clear
6:53 PM 70.0 °F 59.0 °F 68% 30.11 in 10.0 mi SSE 6.9 mph - N/A   Clear
7:53 PM 66.0 °F 59.0 °F 78% 30.10 in 10.0 mi SSE 6.9 mph - N/A   Clear
8:53 PM 64.9 °F 59.0 °F 81% 30.12 in 10.0 mi SE 4.6 mph - N/A   Mostly Cloudy
9:53 PM 64.0 °F 60.1 °F 87% 30.11 in 10.0 mi SSE 5.8 mph - N/A   Clear
10:53 PM 63.0 °F 60.1 °F 90% 30.10 in 10.0 mi SSE 6.9 mph - N/A   Clear
11:53 PM 64.0 °F 61.0 °F 90% 30.13 in 10.0 mi WSW 5.8 mph - 0.00 in Rain Light Rain